Theta_e
288 288 287 287 286 286 286 285 285 284 283 283 282 282 282 281 282 281 280 280 279 279 279 279 279 279 280 278 278 278 278 277 278 277 277 278 277 277 278 277 277 278
287 287 287 287 286 286 285 285 284 284 283 282 281 281 281 281 280 280 279 279 279 278 278 278 278 278 277 277 277 276 276 276 276 279 277 277 277 277 277 277 277 278
287 287 286 286 285 285 284 284 283 282 282 281 281 280 280 280 279 279 279 278 278 278 278 277 277 277 276 276 276 276 276 275 275 276 276 276 276 276 276 277 276 277
286 286 286 285 285 284 284 283 281 281 281 280 279 280 280 280 279 278 278 279 277 276 276 276 276 276 276 275 275 275 275 275 275 275 275 276 276 276 276 276 277 277
285 285 285 284 284 283 282 282 281 280 279 279 279 279 279 278 277 277 277 276 276 276 276 276 275 275 275 275 275 275 275 275 275 275 275 275 275 276 276 276 276 275
284 284 284 283 282 282 281 281 280 279 279 278 278 278 277 277 276 276 276 276 276 275 275 275 275 275 275 274 274 274 274 274 274 274 274 274 274 275 276 275 275 275
284 283 282 282 281 281 280 280 279 279 278 278 278 277 277 276 276 276 275 275 275 275 275 274 274 274 274 274 273 273 273 273 273 273 273 273 274 274 274 274 274 274
283 282 282 281 280 280 279 279 279 278 278 277 277 276 276 276 275 275 275 275 274 274 274 274 274 273 273 273 273 272 272 273 273 273 273 272 272 272 272 273 273 272
282 281 281 280 279 279 278 278 278 277 277 277 276 276 275 275 275 275 275 274 274 274 273 273 273 273 273 272 272 272 272 272 272 272 272 271 271 271 271 271 271 271
281 280 279 279 279 278 277 277 277 276 276 276 275 275 275 275 274 274 274 274 273 273 272 272 272 272 272 271 272 271 271 271 271 271 271 270 270 270 270 270 270 270
280 279 279 278 278 277 277 276 276 276 275 275 274 274 274 274 274 273 273 273 272 272 271 271 271 271 271 271 271 271 270 270 270 270 270 270 270 270 271 270 270 270
279 279 278 278 277 277 276 276 275 275 275 274 274 274 273 273 273 272 272 271 271 271 270 270 270 270 270 270 270 270 270 270 270 270 270 270 270 270 270 270 270 270
279 278 278 277 277 276 275 275 274 274 274 273 273 273 272 272 271 271 271 271 270 270 270 270 270 269 269 269 269 269 269 269 269 269 270 270 270 270 270 270 270 270
279 278 277 277 276 275 275 274 273 273 273 272 272 272 271 271 270 270 270 269 269 269 269 269 269 269 269 269 269 269 269 269 270 270 270 270 270 271 271 271 272 272
278 277 276 276 275 274 274 273 273 272 272 272 271 270 270 270 269 269 268 268 268 268 268 269 269 269 269 269 269 269 270 269 270 270 270 270 271 272 272 273 273 273
277 276 275 275 274 273 273 272 272 271 270 270 270 269 269 269 268 268 268 268 268 268 269 269 269 269 271 273 273 270 270 270 270 271 272 272 272 272 273 273 273 273
276 275 275 274 274 273 272 272 271 270 269 269 268 268 268 268 268 267 267 268 268 268 268 269 269 270 273 274 275 276 274 272 272 273 273 273 273 273 273 273 273 274
275 274 274 273 272 272 271 271 270 269 268 268 267 267 267 267 267 267 267 268 268 268 268 269 269 272 274 275 276 276 276 274 274 273 273 273 273 273 273 273 273 273
274 273 273 272 271 271 270 269 269 268 267 266 266 266 266 266 267 267 267 268 268 268 268 269 269 272 274 275 275 276 276 276 274 274 274 273 274 273 273 273 273 273
273 273 272 271 270 269 268 268 267 267 266 266 266 266 266 266 267 267 267 267 268 268 268 269 269 271 273 274 275 275 276 276 274 274 274 274 273 273 273 273 273 273
273 272 271 270 269 268 267 266 266 266 266 266 266 266 266 266 266 266 267 267 268 268 268 267 268 271 272 274 274 275 276 276 275 274 273 273 273 273 273 273 273 273
272 271 270 268 268 267 266 266 265 266 265 266 266 266 266 267 267 267 267 267 267 267 266 266 267 271 272 273 274 275 276 275 274 273 272 272 272 273 273 273 273 273
272 270 268 267 267 266 265 265 265 265 266 266 266 266 266 266 266 267 267 267 266 266 265 265 266 269 271 272 274 275 275 273 273 273 272 272 272 272 273 273 273 273
271 270 268 267 266 266 266 266 266 266 266 266 266 266 266 266 266 266 267 266 266 266 266 265 266 268 271 272 274 275 275 273 272 272 271 271 272 272 273 273 274 276
270 269 268 266 266 266 266 266 265 265 266 266 266 266 266 266 266 265 266 266 266 266 268 267 265 267 271 272 273 274 274 273 272 271 271 271 271 271 273 273 273 274
270 268 267 266 266 266 266 266 266 265 265 265 265 266 265 265 265 265 265 265 266 266 265 266 266 266 268 272 273 274 275 273 272 271 270 270 271 272 272 272 272 272
Wind_Speed
11 10 11 10 9 9 10 10 8 9 8 8 8 8 9 8 8 8 7 6 5 4 3 3 3 3 2 2 2 2 2 3 3 3 4 5 5 5 6 6 6 7
13 12 10 9 8 7 8 8 9 9 8 8 7 8 7 8 7 7 7 6 4 4 4 4 3 3 3 3 2 1 2 3 4 3 4 5 5 5 6 7 8 7
13 12 12 12 12 11 10 8 8 8 8 7 7 7 7 7 8 6 6 6 5 5 4 4 4 3 3 3 2 2 3 3 5 4 5 6 6 6 6 6 6 7
14 14 12 11 10 11 10 9 8 8 7 8 8 7 7 7 7 7 6 6 5 4 4 3 3 3 3 3 3 3 3 4 4 4 5 5 6 6 7 6 7 7
14 12 11 10 9 10 9 10 10 9 9 9 8 8 8 8 7 7 6 5 5 4 4 4 4 3 3 3 3 3 4 5 4 4 5 6 6 6 6 5 6 8
11 11 10 11 11 12 11 11 10 10 9 9 9 8 8 8 7 7 6 6 5 5 5 4 4 3 3 3 3 4 4 4 4 4 5 6 6 5 5 6 7 8
14 12 12 10 10 11 11 10 10 9 9 8 8 8 8 8 7 7 6 6 5 5 5 4 4 3 3 3 3 3 3 3 3 4 6 7 6 7 6 6 7 8
13 11 11 10 11 10 11 10 10 9 9 9 9 7 8 8 7 6 6 6 5 5 4 4 3 3 3 2 3 3 3 3 5 5 6 7 5 7 6 6 7 8
12 12 12 12 12 10 10 10 10 9 9 10 9 8 7 7 7 7 6 6 5 5 4 4 3 3 3 3 3 4 4 5 5 5 6 7 7 8 7 7 8 9
13 12 13 13 13 11 11 10 10 9 8 9 8 7 8 6 6 6 6 6 5 4 4 3 3 3 3 3 3 4 4 5 5 6 6 7 8 8 8 8 9 10
13 13 14 14 13 11 12 11 10 10 9 9 9 8 7 7 6 5 5 5 6 5 4 3 3 3 3 3 3 3 4 5 6 6 7 7 8 8 9 9 9 10
14 14 15 15 13 12 12 11 11 10 10 8 9 9 8 7 7 6 6 5 4 4 3 3 3 3 3 3 3 4 5 6 6 7 7 8 8 9 9 9 10 10
15 15 14 13 13 12 11 11 10 10 10 10 9 9 9 8 7 6 5 5 4 4 3 3 3 2 2 3 4 5 6 6 7 8 9 8 8 9 9 10 10 10
14 12 12 12 11 11 12 11 11 10 10 9 9 9 9 8 8 7 5 5 3 3 2 2 2 3 3 5 5 6 6 7 7 8 8 8 9 9 10 11 11 12
12 11 11 12 12 12 12 12 11 10 10 9 9 8 7 7 7 6 6 5 3 3 3 3 4 5 5 5 6 7 7 6 6 7 9 10 11 11 11 12 12 13
13 12 12 12 13 13 13 12 12 11 10 9 8 8 8 7 7 6 5 5 5 4 5 5 5 5 8 14 12 6 5 5 6 9 10 10 11 12 12 12 13 11
13 13 13 14 13 12 11 12 11 10 10 9 9 8 8 7 7 7 6 6 6 6 6 6 6 6 13 14 14 15 8 7 8 9 10 11 11 11 12 12 12 13
13 13 13 12 12 12 12 11 11 11 11 10 10 9 8 7 6 7 6 6 6 6 7 6 6 9 13 13 13 13 12 9 8 9 9 10 10 11 12 12 13 13
12 13 13 12 12 12 11 11 11 11 11 11 10 8 8 7 7 7 7 7 6 7 7 7 6 10 13 13 12 13 13 12 8 9 10 10 11 11 12 13 13 13
13 13 13 12 11 11 11 11 11 11 10 8 8 8 8 8 8 8 7 7 7 7 7 6 6 8 12 12 11 12 12 12 8 9 10 10 11 12 11 12 13 12
13 13 13 12 12 12 11 11 11 10 10 9 8 9 9 9 9 8 7 6 6 6 5 5 5 10 12 12 11 11 12 12 7 7 7 9 10 11 12 13 13 12
15 14 14 14 14 13 13 11 10 10 12 10 9 7 7 6 6 7 7 7 7 5 4 5 5 11 12 10 10 10 11 7 6 7 7 8 10 11 11 11 11 13
16 17 16 15 15 16 13 12 12 11 10 9 10 9 9 8 8 7 7 7 7 6 6 6 5 9 11 9 9 10 8 4 5 5 6 8 10 11 11 11 12 13
17 18 18 18 18 14 13 11 10 8 9 9 9 10 9 8 8 6 6 6 7 7 7 6 5 8 11 9 8 9 8 4 3 5 7 8 9 11 10 11 13 20
16 16 18 21 15 11 11 13 12 11 10 8 7 7 8 8 7 6 6 5 6 6 9 8 6 8 11 8 8 8 7 3 4 5 7 8 8 9 10 11 12 13
14 16 16 18 16 10 7 9 9 9 10 9 7 6 7 7 7 6 6 5 4 4 5 6 6 6 7 9 8 8 9 5 3 5 7 9 9 9 9 9 11 11
Wind_Direction
186 186 184 183 184 179 174 172 174 168 167 164 162 162 160 156 148 147 149 147 155 160 182 192 190 196 191 193 204 217 217 230 248 247 249 252 255 257 262 259 260 254
188 184 181 176 176 173 171 169 167 166 164 160 154 145 144 140 142 142 147 150 158 173 178 185 193 193 192 192 201 210 251 254 261 256 257 257 255 256 257 258 258 257
186 184 182 180 177 173 167 162 157 158 156 154 143 141 142 140 140 142 149 154 166 174 183 184 181 181 185 191 193 212 230 245 254 255 256 253 255 250 253 254 254 256
190 187 183 179 172 169 162 155 153 149 146 146 156 150 142 144 140 147 150 157 164 172 174 174 181 189 191 200 203 219 226 239 239 243 252 255 252 252 257 252 257 260
187 185 180 175 169 162 158 160 158 157 158 156 142 143 142 144 148 152 154 165 165 178 180 185 185 193 191 196 202 224 235 242 244 242 250 258 251 254 258 256 262 264
186 182 177 173 168 164 164 165 164 159 155 154 158 147 149 146 153 157 160 167 171 174 181 180 186 191 184 195 210 224 232 244 254 252 259 259 263 257 265 265 268 269
181 176 176 170 164 166 163 164 161 158 159 155 141 154 149 151 156 159 158 164 168 174 178 184 184 194 183 187 206 226 233 241 251 256 259 261 265 267 264 269 270 272
176 171 169 167 166 167 165 163 160 158 154 148 154 152 150 152 155 154 157 165 170 178 181 185 189 181 186 185 224 236 251 243 249 253 256 263 265 270 270 268 272 272
168 170 168 169 168 170 168 163 159 153 152 151 151 151 148 151 154 154 161 164 169 176 180 186 186 189 190 199 219 229 241 246 251 254 261 264 266 268 271 273 272 269
174 169 168 172 174 173 168 163 157 154 150 148 147 146 148 149 148 155 156 167 171 177 181 187 186 190 197 204 217 227 242 254 253 256 258 261 262 266 268 267 268 273
175 172 174 175 176 170 168 160 158 152 152 151 145 147 149 146 152 154 159 166 175 179 189 189 194 200 211 219 226 225 241 248 251 253 255 256 259 259 263 263 264 263
178 176 180 178 172 169 166 162 156 155 152 150 149 147 145 151 153 158 161 169 168 181 182 191 191 196 203 222 231 240 243 246 249 252 253 255 256 258 258 260 261 262
182 183 178 174 172 166 160 158 157 154 152 153 151 148 150 152 154 149 155 164 173 170 183 183 197 197 213 231 238 240 240 246 251 251 253 253 255 255 256 257 258 258
183 176 173 171 166 160 159 157 151 151 150 144 142 148 150 151 153 153 150 146 165 163 181 176 192 212 224 230 234 232 236 241 244 250 256 259 257 257 258 260 259 263
170 170 168 165 162 158 156 156 152 148 144 141 141 139 135 137 136 139 149 149 161 168 184 195 206 220 221 227 225 231 229 234 244 256 259 262 264 264 263 262 264 266
169 166 166 164 162 161 158 152 149 146 141 138 139 136 133 135 137 140 149 159 166 185 196 211 220 220 230 234 230 212 211 231 245 250 258 263 268 271 269 267 267 263
165 169 164 168 164 155 152 149 147 143 140 137 136 136 139 138 142 144 155 171 183 194 205 211 217 223 234 238 241 243 235 233 252 262 263 266 266 270 274 276 275 274
169 164 164 164 156 156 151 147 142 142 142 141 141 140 143 140 146 161 166 176 186 198 209 216 221 233 239 245 247 247 249 253 256 261 264 267 273 274 276 277 279 280
165 163 162 158 158 151 147 144 143 141 141 144 150 144 141 150 161 165 173 181 190 198 210 218 225 235 245 251 253 253 257 261 264 266 270 269 271 274 278 280 282 281
162 161 160 157 150 146 145 145 145 148 144 140 137 144 153 155 163 168 173 182 191 199 209 221 228 238 250 254 255 258 261 267 269 266 267 275 279 280 279 281 282 285
161 160 156 152 149 147 146 146 147 142 143 148 149 155 157 161 164 168 178 178 189 199 209 225 231 243 250 254 256 263 268 273 274 281 287 280 278 280 283 282 285 285
162 160 156 155 154 154 152 147 146 150 152 151 149 147 149 151 159 163 172 180 187 188 202 232 239 247 255 257 262 266 271 277 283 281 274 282 284 284 284 284 283 289
166 162 162 161 159 157 148 150 151 151 150 147 148 154 157 162 164 166 169 173 181 184 202 234 239 249 256 257 259 268 278 267 263 264 276 278 283 286 286 285 288 291
169 165 165 165 160 157 155 154 151 143 149 154 150 151 158 161 159 151 163 171 184 189 203 222 235 250 254 255 261 267 273 268 276 270 267 274 279 284 286 288 290 297
168 166 165 151 150 158 151 151 154 152 148 143 146 141 143 146 144 151 160 179 189 190 211 223 231 242 253 255 263 268 278 271 264 271 274 274 280 281 286 292 297 301
165 163 163 165 151 123 138 139 134 134 146 145 142 131 134 139 147 153 164 171 177 187 215 228 233 237 243 254 261 273 284 282 260 271 276 278 281 281 291 299 303 303